FORMOSAT 7-6 (44353 NORAD) Tracking and Keplerian Element Data

This shows tracking and keplerian element data for the satellite.

Feedback or suggestion? Click here.




ElementValue
Catalog44353
NameFORMOSAT 7-6
Epoch Orbit369
Epoch Day201.80116124
Epoch Year2019
RAAN44.16
Inclination24.0023
Eccentricity0.0013456
Argument of Perigee115.9566
Mean Anonmoly244.2372
Mean Motion14.53342869
Decay Rate3.26E-06
L11 44353U 19036Q 19201.80116124 .00000326 00000-0 26788-4 0 9990
L22 44353 24.0023 44.1600 0013456 115.9566 244.2372 14.53342869 3696

Live tracking and technical data element details for FORMOSAT 7-6 (NORAD 44353). FORMOSAT 7-6 can be tracked NOW for your location showing map with azimuth and elevation plus other details from your city location.

Track the satellite on the map from your city or location and see movement details for azimuth, elevation, latitude, longitude, range, height, and movement on the map or in text.







IsCatalogInMostPopularTable: catalog: 44353, numindb: 3
Update: records affected: 1



GetName: 44353 FORMOSAT 7-6

Hit Count: updated at: Sun, 21 Jul 2019 21:03:06 GMT